TimeMDT,TemperatureF,Dew PointF,Humidity,Sea Level PressureIn,VisibilityMPH,Wind Direction,Wind SpeedMPH,Gust SpeedMPH,PrecipitationIn,Events,Conditions,WindDirDegrees,DateUTC
12:15 AM,46.4,15.8,29,30.01,10.0,West,13.8,-,N/A,,Clear,260,2012-10-25 06:15:00
12:35 AM,46.4,17.6,32,30.02,10.0,West,11.5,-,N/A,,Clear,260,2012-10-25 06:35:00
12:55 AM,44.6,17.6,34,30.02,10.0,West,11.5,17.3,N/A,,Clear,260,2012-10-25 06:55:00
1:35 AM,42.8,15.8,34,30.04,10.0,WSW,11.5,-,N/A,,Clear,240,2012-10-25 07:35:00
1:55 AM,41.0,15.8,36,30.05,10.0,WSW,9.2,-,N/A,,Clear,240,2012-10-25 07:55:00
2:15 AM,37.4,15.8,41,30.06,10.0,WSW,11.5,-,N/A,,Clear,240,2012-10-25 08:15:00
2:35 AM,37.4,15.8,41,30.06,10.0,WSW,11.5,-,N/A,,Clear,240,2012-10-25 08:35:00
2:55 AM,37.4,15.8,41,30.06,10.0,WSW,12.7,-,N/A,,Clear,240,2012-10-25 08:55:00
3:15 AM,37.4,14.0,38,30.07,10.0,WSW,12.7,-,N/A,,Clear,240,2012-10-25 09:15:00
3:35 AM,37.4,12.2,36,30.07,10.0,WSW,12.7,-,N/A,,Clear,240,2012-10-25 09:35:00
3:55 AM,37.4,12.2,36,30.07,10.0,WSW,12.7,-,N/A,,Clear,240,2012-10-25 09:55:00
4:15 AM,37.4,12.2,36,30.08,10.0,WSW,8.1,-,N/A,,Clear,240,2012-10-25 10:15:00
4:35 AM,35.6,12.2,38,30.09,10.0,SW,5.8,-,N/A,,Clear,220,2012-10-25 10:35:00
4:55 AM,32.0,8.6,38,30.10,10.0,SSE,6.9,-,N/A,,Clear,160,2012-10-25 10:55:00
5:55 AM,32.0,10.4,41,30.12,10.0,SSW,11.5,-,N/A,,Clear,200,2012-10-25 11:55:00
6:15 AM,33.8,10.4,38,30.13,10.0,SW,11.5,-,N/A,,Clear,220,2012-10-25 12:15:00
6:35 AM,32.0,8.6,38,30.13,10.0,SW,11.5,-,N/A,,Clear,220,2012-10-25 12:35:00
6:55 AM,32.0,10.4,41,30.14,10.0,SW,11.5,-,N/A,,Clear,220,2012-10-25 12:55:00
7:35 AM,28.4,6.8,40,30.14,10.0,South,5.8,-,N/A,,Clear,190,2012-10-25 13:35:00
7:55 AM,30.2,8.6,40,30.15,10.0,SW,6.9,-,N/A,,Clear,220,2012-10-25 13:55:00
8:15 AM,35.6,10.4,35,30.16,10.0,SW,5.8,-,N/A,,Clear,220,2012-10-25 14:15:00
8:55 AM,39.2,10.4,31,30.16,10.0,SW,15.0,-,N/A,,Clear,230,2012-10-25 14:55:00
9:15 AM,41.0,10.4,29,30.16,10.0,SW,17.3,-,N/A,,Clear,230,2012-10-25 15:15:00
9:35 AM,42.8,10.4,27,30.16,10.0,SW,13.8,-,N/A,,Clear,220,2012-10-25 15:35:00
9:55 AM,42.8,10.4,27,30.17,10.0,SW,11.5,-,N/A,,Clear,230,2012-10-25 15:55:00
10:15 AM,44.6,8.6,23,30.16,10.0,SW,12.7,18.4,N/A,,Clear,220,2012-10-25 16:15:00
10:35 AM,44.6,8.6,23,30.15,10.0,SSW,11.5,-,N/A,,Clear,210,2012-10-25 16:35:00
10:55 AM,44.6,8.6,23,30.14,10.0,SW,16.1,19.6,N/A,,Clear,230,2012-10-25 16:55:00
11:15 AM,46.4,8.6,22,30.14,10.0,SW,12.7,18.4,N/A,,Clear,230,2012-10-25 17:15:00
11:35 AM,46.4,8.6,22,30.14,10.0,WSW,10.4,16.1,N/A,,Clear,250,2012-10-25 17:35:00
11:55 AM,46.4,8.6,22,30.14,10.0,SW,10.4,17.3,N/A,,Clear,220,2012-10-25 17:55:00
12:15 PM,48.2,8.6,20,30.13,10.0,SW,13.8,17.3,N/A,,Clear,220,2012-10-25 18:15:00
12:35 PM,48.2,8.6,20,30.12,10.0,SW,12.7,-,N/A,,Clear,230,2012-10-25 18:35:00
12:55 PM,48.2,8.6,20,30.11,10.0,SW,11.5,20.7,N/A,,Clear,230,2012-10-25 18:55:00
1:15 PM,51.8,8.6,18,30.09,10.0,SW,15.0,24.2,N/A,,Clear,230,2012-10-25 19:15:00
1:35 PM,51.8,8.6,18,30.09,10.0,WSW,11.5,-,N/A,,Clear,240,2012-10-25 19:35:00
1:55 PM,51.8,8.6,18,30.09,10.0,SSW,17.3,-,N/A,,Clear,210,2012-10-25 19:55:00
2:15 PM,53.6,6.8,15,30.08,10.0,SW,11.5,20.7,N/A,,Clear,220,2012-10-25 20:15:00
2:35 PM,53.6,6.8,15,30.07,10.0,SW,20.7,28.8,N/A,,Clear,220,2012-10-25 20:35:00
2:55 PM,53.6,6.8,15,30.07,10.0,WSW,17.3,26.5,N/A,,Clear,240,2012-10-25 20:55:00
3:15 PM,53.6,6.8,15,30.08,10.0,WSW,15.0,26.5,N/A,,Clear,250,2012-10-25 21:15:00
3:35 PM,53.6,6.8,15,30.08,10.0,SW,11.5,26.5,N/A,,Clear,230,2012-10-25 21:35:00
3:55 PM,53.6,8.6,16,30.08,10.0,SW,18.4,26.5,N/A,,Clear,230,2012-10-25 21:55:00
4:15 PM,53.6,8.6,16,30.08,10.0,SW,19.6,-,N/A,,Clear,230,2012-10-25 22:15:00
4:35 PM,53.6,6.8,15,30.08,10.0,SW,15.0,21.9,N/A,,Clear,220,2012-10-25 22:35:00
4:55 PM,53.6,6.8,15,30.08,10.0,WSW,15.0,25.3,N/A,,Clear,250,2012-10-25 22:55:00
5:15 PM,51.8,6.8,16,30.09,10.0,WSW,16.1,23.0,N/A,,Clear,250,2012-10-25 23:15:00
5:35 PM,51.8,6.8,16,30.09,10.0,WSW,15.0,20.7,N/A,,Clear,240,2012-10-25 23:35:00
5:55 PM,48.2,6.8,19,30.09,10.0,WSW,15.0,-,N/A,,Clear,240,2012-10-25 23:55:00
6:15 PM,46.4,6.8,20,30.11,10.0,West,8.1,-,N/A,,Clear,270,2012-10-26 00:15:00
6:35 PM,42.8,3.2,19,30.12,10.0,NW,5.8,-,N/A,,Clear,310,2012-10-26 00:35:00
6:55 PM,44.6,6.8,21,30.13,10.0,NW,9.2,-,N/A,,Clear,310,2012-10-26 00:55:00
7:15 PM,39.2,3.2,22,30.13,10.0,NNW,10.4,-,N/A,,Clear,330,2012-10-26 01:15:00
7:35 PM,39.2,3.2,22,30.14,10.0,North,5.8,-,N/A,,Clear,350,2012-10-26 01:35:00
7:55 PM,37.4,3.2,24,30.14,10.0,North,5.8,-,N/A,,Clear,350,2012-10-26 01:55:00
8:15 PM,35.6,3.2,26,30.14,10.0,Calm,Calm,-,N/A,,Clear,0,2012-10-26 02:15:00
8:35 PM,35.6,5.0,28,30.15,10.0,East,4.6,-,N/A,,Clear,100,2012-10-26 02:35:00
8:55 PM,35.6,3.2,26,30.15,10.0,Calm,Calm,-,N/A,,Partly Cloudy,0,2012-10-26 02:55:00
9:35 PM,30.2,-0.4,27,30.16,10.0,Calm,Calm,-,N/A,,Partly Cloudy,0,2012-10-26 03:35:00
9:55 PM,37.4,6.8,28,30.16,10.0,NW,3.5,-,N/A,,Clear,320,2012-10-26 03:55:00
10:15 PM,33.8,3.2,28,30.16,10.0,Calm,Calm,-,N/A,,Partly Cloudy,0,2012-10-26 04:15:00
10:35 PM,30.2,1.4,29,30.16,10.0,Calm,Calm,-,N/A,,Mostly Cloudy,0,2012-10-26 04:35:00
11:15 PM,30.2,1.4,29,30.17,10.0,North,5.8,-,N/A,,Mostly Cloudy,10,2012-10-26 05:15:00
11:35 PM,32.0,3.2,30,30.19,10.0,South,5.8,-,N/A,,Overcast,190,2012-10-26 05:35:00
11:55 PM,32.0,3.2,30,30.19,10.0,West,4.6,-,N/A,,Overcast,270,2012-10-26 05:55:00